ニート彗星

243P/NEAT (2018)

English version
Home page
Updated on October 8, 2017

---------------------------------------------------------------------

・ プロフィール

・ 軌道要素

Epoch 2018 Aug. 30.0 TT = JDT 2458360.5
T 2018 Aug. 26.03614 TT                                 MPC
q   2.4544576            (2000.0)            P               Q
n   0.13144832     Peri.  283.55942     +0.97226809     -0.19246381
a   3.8308871      Node    87.65867     +0.23023383     +0.88747325
e   0.3592978      Incl.    7.64145     -0.04107480     +0.41874683
P   7.50
From 307 observations 2003 Aug. 1-2012 Jan. 26, mean residual 0".6.

・ 星図

・ 光度変化

        m1 = 4.2 + 5 logΔ + 30 log r

---------------------------------------------------------------------

軌道要素はM.P.E.C. 2013-B90に掲載されたものです。
星図はステラナビゲータ Ver.10 (アストロアーツ) で作成したものです。
光度グラフはComet for Windowsで作成したものです。

---------------------------------------------------------------------

Copyright(C) Seiichi Yoshida (comet@aerith.net). All rights reserved.